Weather reports worldwide

Advertisment
Albacete/Los Llanos, Spain (8280): temperature & dewpoint: 13.03.2019 09:00:00 - 19.03.2019 09:00:00 (CET)Albacete/Los Llanos, Spain (8280): wind speed: 13.03.2019 09:00:00 - 19.03.2019 09:00:00 (CET)Albacete/Los Llanos, Spain (8280): wind direction: 13.03.2019 09:00:00 - 19.03.2019 09:00:00 (CET)Albacete/Los Llanos, Spain (8280): reduced air pressure: 13.03.2019 09:00:00 - 19.03.2019 09:00:00 (CET)Albacete/Los Llanos, Spain (8280): visibility: 13.03.2019 09:00:00 - 19.03.2019 09:00:00 (CET)
Date & Time tt [°C] td [°C] ff [km/h] ff [kn] dd ppp [hPa] vv [km]
19.03.2019 09:00:00 - - - - - - -
19.03.2019 08:00:00 - - - - - - -
19.03.2019 07:00:00 4,9 -0,7 5 3 NNE 1025,0 25
19.03.2019 06:00:00 - - - - - - -
19.03.2019 05:00:00 - - - - - - -
19.03.2019 04:00:00 4,9 3,9 4 2 W 1024,4 15
19.03.2019 03:00:00 - - - - - - -
19.03.2019 02:00:00 - - - - - - -
19.03.2019 01:00:00 6,4 4,6 9 5 SE 1025,0 12
19.03.2019 00:00:00 - - - - - - -
18.03.2019 23:00:00 - - - - - - -
18.03.2019 22:00:00 8,1 5,4 11 6 SSE 1023,7 25
18.03.2019 21:00:00 - - - - - - -
18.03.2019 20:00:00 - - - - - - -
18.03.2019 19:00:00 14,0 -2,4 8 4 NW 1020,8 30
18.03.2019 18:00:00 - - - - - - -
18.03.2019 17:00:00 - - - - - - -
18.03.2019 16:00:00 15,8 1,2 11 6 NNE 1019,9 30
18.03.2019 15:00:00 - - - - - - -
18.03.2019 14:00:00 - - - - - - -
18.03.2019 13:00:00 13,1 0,2 4 2 N 1022,4 30
18.03.2019 12:00:00 - - - - - - -
18.03.2019 11:00:00 - - - - - - -
18.03.2019 10:00:00 8,3 -0,4 13 7 NE 1024,3 30
18.03.2019 09:00:00 - - - - - - -
18.03.2019 08:00:00 - - - - - - -
18.03.2019 07:00:00 4,3 1,8 4 2 NW 1023,5 25
18.03.2019 06:00:00 - - - - - - -
18.03.2019 05:00:00 - - - - - - -
18.03.2019 04:00:00 5,7 3,5 8 4 SE 1021,6 30
18.03.2019 03:00:00 - - - - - - -
18.03.2019 02:00:00 - - - - - - -
18.03.2019 01:00:00 7,6 -1,1 5 3 S 1020,1 20
18.03.2019 00:00:00 - - - - - - -
17.03.2019 23:00:00 - - - - - - -
17.03.2019 22:00:00 13,1 -2,0 11 6 W 1017,8 30
17.03.2019 21:00:00 - - - - - - -
17.03.2019 20:00:00 - - - - - - -
17.03.2019 19:00:00 18,5 -4,9 21 11 NW 1013,5 20
17.03.2019 18:00:00 - - - - - - -
17.03.2019 17:00:00 - - - - - - -
17.03.2019 16:00:00 21,5 -3,8 34 18 WNW 1013,4 40
17.03.2019 15:00:00 - - - - - - -
17.03.2019 14:00:00 - - - - - - -
17.03.2019 13:00:00 20,0 0,5 29 16 WNW 1015,8 30
17.03.2019 12:00:00 - - - - - - -
17.03.2019 11:00:00 - - - - - - -
17.03.2019 10:00:00 16,1 3,9 24 13 W 1017,7 30
17.03.2019 09:00:00 - - - - - - -
17.03.2019 08:00:00 - - - - - - -
17.03.2019 07:00:00 9,9 0,3 15 8 W 1018,5 40
17.03.2019 06:00:00 - - - - - - -
17.03.2019 05:00:00 - - - - - - -
17.03.2019 04:00:00 10,3 -3,0 18 10 W 1017,8 40
17.03.2019 03:00:00 - - - - - - -
17.03.2019 02:00:00 - - - - - - -
17.03.2019 01:00:00 9,6 -1,7 8 4 S 1019,3 40
17.03.2019 00:00:00 - - - - - - -
16.03.2019 23:00:00 - - - - - - -
16.03.2019 22:00:00 14,1 -1,1 11 6 SSW 1019,1 40
16.03.2019 21:00:00 - - - - - - -
16.03.2019 20:00:00 - - - - - - -
16.03.2019 19:00:00 19,7 -3,9 11 6 S 1016,4 30
16.03.2019 18:00:00 - - - - - - -
16.03.2019 17:00:00 - - - - - - -
16.03.2019 16:00:00 24,1 -7,0 21 11 S 1016,3 30
16.03.2019 15:00:00 - - - - - - -
16.03.2019 14:00:00 - - - - - - -
16.03.2019 13:00:00 23,7 -5,3 15 8 SSE 1019,1 30
16.03.2019 12:00:00 - - - - - - -
16.03.2019 11:00:00 - - - - - - -
16.03.2019 10:00:00 13,0 -0,3 4 2 N 1024,2 30
16.03.2019 09:00:00 - - - - - - -
16.03.2019 08:00:00 - - - - - - -
16.03.2019 07:00:00 2,8 -1,2 0 0 N 1027,1 30
16.03.2019 06:00:00 - - - - - - -
16.03.2019 05:00:00 - - - - - - -
16.03.2019 04:00:00 6,3 -1,3 0 0 N 1025,9 30
16.03.2019 03:00:00 - - - - - - -
16.03.2019 02:00:00 - - - - - - -
16.03.2019 01:00:00 8,6 -1,5 8 4 S 1026,7 30
16.03.2019 00:00:00 - - - - - - -
15.03.2019 23:00:00 - - - - - - -
15.03.2019 22:00:00 10,6 -1,1 4 2 N 1025,8 30
15.03.2019 21:00:00 - - - - - - -
15.03.2019 20:00:00 - - - - - - -
15.03.2019 19:00:00 20,6 -1,2 5 3 ENE 1021,8 50
15.03.2019 18:00:00 - - - - - - -
15.03.2019 17:00:00 - - - - - - -
15.03.2019 16:00:00 23,3 -2,3 9 5 NNW 1021,6 50
15.03.2019 15:00:00 - - - - - - -
15.03.2019 14:00:00 - - - - - - -
15.03.2019 13:00:00 17,8 -1,9 4 2 N 1024,9 50
15.03.2019 12:00:00 - - - - - - -
15.03.2019 11:00:00 - - - - - - -
15.03.2019 10:00:00 10,9 -2,5 0 0 N 1028,1 50
15.03.2019 09:00:00 - - - - - - -
15.03.2019 08:00:00 - - - - - - -
15.03.2019 07:00:00 2,0 -5,2 5 3 W 1030,3 50
15.03.2019 06:00:00 - - - - - - -
15.03.2019 05:00:00 - - - - - - -
15.03.2019 04:00:00 2,4 -5,2 11 6 SSW 1030,2 25
15.03.2019 03:00:00 - - - - - - -
15.03.2019 02:00:00 - - - - - - -
15.03.2019 01:00:00 4,9 -5,4 5 3 W 1030,3 25
15.03.2019 00:00:00 - - - - - - -
14.03.2019 23:00:00 - - - - - - -
14.03.2019 22:00:00 9,9 -4,8 11 6 W 1028,0 25
14.03.2019 21:00:00 - - - - - - -
14.03.2019 20:00:00 - - - - - - -
14.03.2019 19:00:00 15,9 -5,2 18 10 WNW 1024,9 25
14.03.2019 18:00:00 - - - - - - -
14.03.2019 17:00:00 - - - - - - -
14.03.2019 16:00:00 18,3 -3,8 15 8 NW 1024,6 25
14.03.2019 15:00:00 - - - - - - -
14.03.2019 14:00:00 - - - - - - -
14.03.2019 13:00:00 13,6 -3,6 9 5 NNW 1028,1 25
14.03.2019 12:00:00 - - - - - - -
14.03.2019 11:00:00 - - - - - - -
14.03.2019 10:00:00 7,6 -2,4 9 5 N 1031,3 25
14.03.2019 09:00:00 - - - - - - -
14.03.2019 08:00:00 - - - - - - -
14.03.2019 07:00:00 -0,7 -3,7 4 2 N 1032,4 25
14.03.2019 06:00:00 - - - - - - -
14.03.2019 05:00:00 - - - - - - -
14.03.2019 04:00:00 2,2 -3,1 11 6 W 1031,5 20
14.03.2019 03:00:00 - - - - - - -
14.03.2019 02:00:00 - - - - - - -
14.03.2019 01:00:00 3,0 -3,3 5 3 NW 1031,8 20
14.03.2019 00:00:00 - - - - - - -
13.03.2019 23:00:00 - - - - - - -
13.03.2019 22:00:00 8,7 -3,2 9 5 NW 1029,2 20
13.03.2019 21:00:00 - - - - - - -
13.03.2019 20:00:00 - - - - - - -
13.03.2019 19:00:00 13,7 -3,5 26 14 WNW 1025,1 40
13.03.2019 18:00:00 - - - - - - -
13.03.2019 17:00:00 - - - - - - -
13.03.2019 16:00:00 17,2 -3,0 18 10 NW 1022,3 35
13.03.2019 15:00:00 - - - - - - -
13.03.2019 14:00:00 - - - - - - -
13.03.2019 13:00:00 15,8 3,3 22 12 NNW 1023,7 35
13.03.2019 12:00:00 - - - - - - -
13.03.2019 11:00:00 - - - - - - -
13.03.2019 10:00:00 12,3 5,0 21 11 NW 1024,0 40
13.03.2019 09:00:00 - - - - - - -

tt = temperature
td = dewpoint
ff = wind speed
dd = wind direction
ppp = reduced air pressure
vv = visibility

Next stations